User: anonymous   Login
Location: Ahstedt
(52.2048°N, 10.1060°E)
Time: 05:42:22
(UTC+00:00)
Language:

Meteor 1-24 Rocket - Orbit

View from above orbital plane
View from above orbital plane
View from above satellite
View from above satellite

Ground track
Ground track

The orbit is defined by the following mean orbital elements,

1 08800U          26071.77313902 +.00000000 +00000-0 +53883-4 0 00008
2 08800  81.2543 352.5060 0094079 149.4110 211.2596 14.10651460    05
Epoch (UTC): 12 March 2026 18:33:19
Eccentricity: 0.0094079
inclination: 81.2543°
perigee height: 789 km
apogee height: 925 km
right ascension of ascending node: 352.5060°
argument of perigee: 149.4110°
revolutions per day: 14.10651460
mean anomaly at epoch: 211.2596°

The dashed part of the orbit path shows where the satellite is in the earth's shadow,  

DLR